TimeCST,TemperatureF,Dew PointF,Humidity,Sea Level PressureIn,VisibilityMPH,Wind Direction,Wind SpeedMPH,Gust SpeedMPH,PrecipitationIn,Events,Conditions,WindDirDegrees,DateUTC
12:53 AM,33.1,30.9,92,30.26,3.0,North,10.4,-,N/A,,Overcast,360,2014-02-11 06:53:00
1:31 AM,33.1,30.0,89,30.25,4.0,North,10.4,-,N/A,,Overcast,360,2014-02-11 07:31:00
1:53 AM,33.1,30.0,89,30.26,4.0,North,11.5,-,N/A,,Overcast,360,2014-02-11 07:53:00
2:53 AM,33.1,30.0,89,30.26,5.0,North,12.7,-,N/A,,Overcast,10,2014-02-11 08:53:00
3:53 AM,33.1,28.9,85,30.26,5.0,North,11.5,-,N/A,,Overcast,10,2014-02-11 09:53:00
4:01 AM,33.1,28.9,85,30.25,5.0,North,10.4,-,N/A,,Overcast,10,2014-02-11 10:01:00
4:17 AM,33.1,28.9,85,30.25,5.0,North,10.4,19.6,N/A,,Overcast,10,2014-02-11 10:17:00
4:53 AM,33.1,28.9,85,30.25,6.0,North,10.4,-,N/A,,Overcast,10,2014-02-11 10:53:00
5:53 AM,33.1,28.9,85,30.27,6.0,North,10.4,-,N/A,,Overcast,10,2014-02-11 11:53:00
6:53 AM,33.1,28.0,82,30.27,7.0,NNE,9.2,-,N/A,,Overcast,20,2014-02-11 12:53:00
7:46 AM,33.1,27.0,78,30.28,6.0,North,11.5,-,N/A,,Haze,10,2014-02-11 13:46:00
7:53 AM,32.0,27.0,82,30.29,6.0,North,12.7,-,N/A,,Haze,10,2014-02-11 13:53:00
8:36 AM,33.1,27.0,78,30.28,6.0,North,17.3,21.9,N/A,,Haze,10,2014-02-11 14:36:00
8:53 AM,33.1,27.0,78,30.30,7.0,North,15.0,23.0,N/A,,Mostly Cloudy,10,2014-02-11 14:53:00
9:53 AM,34.0,27.0,75,30.33,7.0,NNE,9.2,-,N/A,,Overcast,20,2014-02-11 15:53:00
10:53 AM,34.0,27.0,75,30.30,8.0,NNE,10.4,21.9,0.00,Rain,Light Rain,30,2014-02-11 16:53:00
11:53 AM,33.1,28.9,85,30.31,3.0,North,9.2,-,0.03,Rain,Rain,360,2014-02-11 17:53:00
12:15 PM,32.0,28.9,88,30.28,2.5,North,9.2,-,N/A,Rain,Light Freezing Rain,360,2014-02-11 18:15:00
12:31 PM,32.0,28.9,88,30.26,2.5,North,11.5,-,N/A,Rain,Light Freezing Rain,360,2014-02-11 18:31:00
12:46 PM,32.0,30.0,92,30.22,2.0,North,10.4,-,N/A,Rain,Light Freezing Rain,10,2014-02-11 18:46:00
12:49 PM,32.0,30.2,93,30.22,2.5,North,16.1,-,N/A,Rain,Light Freezing Rain,10,2014-02-11 18:49:00
12:53 PM,32.0,30.0,92,30.23,2.5,North,13.8,-,N/A,Rain,Light Freezing Rain,10,2014-02-11 18:53:00
1:00 PM,32.0,28.9,88,30.23,2.5,North,13.8,-,0.01,Rain,Light Freezing Rain,360,2014-02-11 19:00:00
1:28 PM,32.0,30.0,92,30.24,2.5,North,8.1,-,0.04,Rain,Light Freezing Rain,350,2014-02-11 19:28:00
1:38 PM,32.0,30.0,92,30.23,1.8,North,8.1,-,0.08,Rain,Light Freezing Rain,360,2014-02-11 19:38:00
1:47 PM,32.0,30.2,93,30.24,2.0,North,8.1,-,0.09,Rain,Light Freezing Rain,360,2014-02-11 19:47:00
1:53 PM,32.0,30.0,92,30.24,2.0,NNE,6.9,-,0.10,Rain,Light Freezing Rain,20,2014-02-11 19:53:00
2:00 PM,32.0,30.0,92,30.24,2.0,NNW,6.9,-,0.01,,Overcast,340,2014-02-11 20:00:00
2:04 PM,32.0,30.0,92,30.25,2.5,North,6.9,-,0.01,,Overcast,350,2014-02-11 20:04:00
2:14 PM,32.0,30.0,92,30.24,2.5,NNW,6.9,-,0.01,,Overcast,340,2014-02-11 20:14:00
2:29 PM,32.0,30.0,92,30.23,2.5,NNW,10.4,-,0.02,,Overcast,330,2014-02-11 20:29:00
2:39 PM,32.0,30.0,92,30.24,3.0,NNW,9.2,-,0.02,,Overcast,340,2014-02-11 20:39:00
2:53 PM,32.0,30.0,92,30.25,4.0,NNW,11.5,-,0.02,,Overcast,340,2014-02-11 20:53:00
3:29 PM,32.0,28.9,88,30.23,2.5,NNW,12.7,-,0.01,Rain,Light Freezing Rain,340,2014-02-11 21:29:00
3:53 PM,32.0,30.0,92,30.24,2.5,NNW,13.8,-,0.03,Rain,Light Freezing Rain,340,2014-02-11 21:53:00
4:05 PM,32.0,30.0,92,30.23,2.5,NNW,9.2,-,0.00,Rain,Light Freezing Rain,340,2014-02-11 22:05:00
4:20 PM,32.0,28.9,88,30.23,2.0,North,12.7,-,0.01,Rain,Light Freezing Rain,350,2014-02-11 22:20:00
4:25 PM,32.0,28.9,88,30.23,3.0,North,12.7,-,0.01,Rain,Light Freezing Rain,350,2014-02-11 22:25:00
4:53 PM,32.0,30.0,92,30.25,3.0,North,9.2,-,0.01,Rain,Light Freezing Rain,350,2014-02-11 22:53:00
5:11 PM,32.0,28.9,88,30.22,4.0,North,9.2,-,0.01,,Overcast,360,2014-02-11 23:11:00
5:18 PM,32.0,28.9,88,30.22,4.0,North,10.4,-,0.01,Rain,Light Freezing Rain,360,2014-02-11 23:18:00
5:32 PM,32.0,28.9,88,30.22,5.0,North,12.7,-,0.01,,Overcast,360,2014-02-11 23:32:00
5:50 PM,32.0,28.4,87,30.23,5.0,North,10.4,-,0.01,Rain,Light Freezing Rain,10,2014-02-11 23:50:00
5:53 PM,32.0,28.9,88,30.24,5.0,North,11.5,-,0.01,Rain,Light Freezing Rain,10,2014-02-11 23:53:00
6:09 PM,30.9,28.9,92,30.24,9.0,North,11.5,-,0.00,,Overcast,360,2014-02-12 00:09:00
6:17 PM,30.9,28.9,92,30.23,9.0,North,9.2,-,0.00,,Overcast,10,2014-02-12 00:17:00
6:53 PM,30.9,28.9,92,30.25,3.0,North,8.1,-,0.00,Snow,Light Snow,10,2014-02-12 00:53:00
7:00 PM,30.9,28.9,92,30.24,4.0,North,12.7,-,0.00,,Overcast,10,2014-02-12 01:00:00
7:29 PM,30.9,28.0,89,30.25,6.0,North,8.1,-,0.00,,Overcast,10,2014-02-12 01:29:00
7:53 PM,30.9,28.0,89,30.26,9.0,North,9.2,-,0.00,,Overcast,360,2014-02-12 01:53:00
8:16 PM,30.9,28.9,92,30.26,8.0,North,8.1,-,N/A,,Overcast,350,2014-02-12 02:16:00
8:53 PM,32.0,28.9,88,30.27,9.0,North,9.2,-,N/A,,Overcast,350,2014-02-12 02:53:00
9:53 PM,30.9,27.0,85,30.25,10.0,NNE,5.8,-,N/A,,Overcast,20,2014-02-12 03:53:00
10:53 PM,32.0,28.0,85,30.23,10.0,NNE,6.9,-,N/A,,Overcast,20,2014-02-12 04:53:00
11:53 PM,30.9,26.1,82,30.23,10.0,NNE,9.2,-,N/A,,Overcast,20,2014-02-12 05:53:00